Home   Weather   Port Angeles   Past weeks

Flag for USA Past Weather in Port Angeles, Washington, USA — Yesterday and Last 2 Weeks

48 °F

Passing clouds.

Feels Like: 47 °F
Forecast: 49 / 56 °F
Wind: 3 mph from East

Location: William R. Fairchild International Airport

Current Time: Oct 23, 2016 at 2:45:38 AM

Latest Report: Oct 23, 2016 at 1:53 AM

Visibility: 10 mi

Pressure: 29.79 "Hg

Humidity: 89%

Dew Point: 45 °F

Location of Port AngelesLocation

Past Weather in Port Angeles — Graph


Port Angeles Temperature Yesterday

Maximum temperature yesterday: 52 °F (at 2:53 PM)
Minimum temperature yesterday: 38 °F (at 7:53 AM)
Average temperature yesterday: 46 °F

High & Low Weather Summary for the Past Weeks

High61 °F (Oct 20, 11:53 AM)97% (Oct 17, 5:53 AM)30.29 "Hg (Oct 17, 5:53 AM)
Low34 °F (Oct 12, 3:53 AM)49% (Oct 11, 3:53 PM)28.93 "Hg (Oct 15, 4:53 PM)
Average49 °F85%29.81 "Hg
* Reported Oct 8 12:53 AM — Oct 23 12:53 AM, Port Angeles, Weather by CustomWeather, © 2016

Note: Actual official high and low records may vary slightly from our data, if they occured in-between our weather recording intervals... More about our weather records


Port Angeles Weather History for the Previous 24 Hours

Scroll right to see more
Time TempWeatherWind HumidityBarometerVisibility
12:53 AM
Sun, Oct 23
46 °FClear.No wind93%29.78 "Hg10 mi
11:53 PM
Sat, Oct 22
46 °FClear.3 mph89%29.78 "Hg10 mi
10:53 PM47 °FPassing clouds.6 mph90%29.78 "Hg10 mi
9:53 PM48 °FLight rain. Passing clouds.No wind93%29.78 "Hg10 mi
8:53 PM49 °FLight rain. Overcast.No wind86%29.78 "Hg10 mi
7:53 PM48 °FMostly cloudy.No wind86%29.79 "Hg10 mi
6:53 PM48 °FClear.5 mph83%29.79 "Hg10 mi
5:53 PM50 °FPassing clouds.5 mph83%29.80 "Hg10 mi
4:53 PM52 °FPartly sunny.No wind75%29.82 "Hg10 mi
3:53 PM52 °FSunny.No wind75%29.84 "Hg10 mi
2:53 PM52 °FSunny.No wind75%29.86 "Hg10 mi
1:53 PM50 °FPassing clouds.No wind83%29.89 "Hg10 mi
12:53 PM50 °FSunny.No wind80%29.92 "Hg10 mi
11:53 AM50 °FSunny.No wind83%29.94 "Hg10 mi
10:53 AM51 °FPartly sunny.3 mph83%29.95 "Hg10 mi
9:53 AM48 °FSunny.No wind89%29.96 "Hg10 mi
8:53 AM44 °FPassing clouds.No wind93%29.97 "Hg10 mi
7:53 AM38 °FSunny.No wind93%29.97 "Hg10 mi
7:02 AM40 °FFog.8 mph93%29.97 "Hg2 mi
6:53 AM40 °FFog.3 mph97%29.98 "Hg4 mi
5:53 AM39 °FClear.No wind96%29.98 "Hg7 mi
4:53 AM40 °FFog.No wind97%29.97 "Hg6 mi
3:53 AM42 °FClear.No wind89%29.98 "Hg10 mi
2:53 AM42 °FClear.7 mph96%29.97 "Hg10 mi
Weather by CustomWeather, © 2016

See weather overviewHow to use our weather pages